Location: Champs
(48.8539°N, 2.6040°E)
Time: 13:26:50
(UTC+00:00)

USA 306 - Pass Details

Date: 26 October 2021
Orbit: 559 x 573 km, 54.0° (Epoch: 05 December)

Event Time Altitude Azimuth Distance (km) Brightness Sun altitude
Exits shadow 04:33:31 36° 217° (SW) 901 3.5 -19.2°
Maximum altitude 04:35:05 66° 147° (SSE) 613 3.1 -19.0°
Drops below altitude 10° 04:39:15 10° 65° (ENE) 1,850 6.5 -18.3°
Sets 04:41:31 0° 63° (ENE) 2,748 7.6 -17.9°
